Regional Weather Roundup
Issued by NWS

Home | Current Version | Previous Version | Text Only | Print | Product List | Glossary Off
Versions: 1 2 3 4 5 6 7 8 9 10 11 12 13 14 15 16 17 18 19 20 21 22 23 24 25 26 27 28 29 30 31 32 33 34 35 36 37 38 39 40 41 42 43 44 45 46 47 48 49 50

000
ASUS43 KBIS 282110
RWRND

NORTH DAKOTA REGIONAL WEATHER ROUNDUP
NATIONAL WEATHER SERVICE BISMARCK ND
300 PM CST WED JAN 28 2015

NOTE: "FAIR" INDICATES FEW OR NO CLOUDS BELOW 12,000 FEET WITH NO
SIGNIFICANT WEATHER AND/OR OBSTRUCTIONS TO VISIBILITY.


NDZ001>003-009>011-017-282200-
NORTHWEST NORTH DAKOTA

CITY           SKY/WX    TMP DP  RH WIND       PRES   REMARKS
WILLISTON      CLOUDY    32  28  85 N16       30.06R
MINOT          CLOUDY    28  26  92 NW18      29.94R FOG     WCI  15
$$

NDZ018>021-031>035-040>046-282200-
SOUTHWEST NORTH DAKOTA

CITY           SKY/WX    TMP DP  RH WIND       PRES   REMARKS
BISMARCK       CLOUDY    33  30  88 NW17G30   29.90R
DICKINSON      CLOUDY    32  28  85 NW32G38   29.96R FOG     WCI  17
GARRISON         N/A     31  28  89 NW22      29.93R WCI  18
HETTINGER ARPT CLOUDY    36  30  79 NW31G40   29.95R
$$

NDZ004>008-012>016-024-026-027-054-282200-
NORTHEAST NORTH DAKOTA

CITY           SKY/WX    TMP DP  RH WIND       PRES   REMARKS
GRAND FORKS    CLOUDY    34  32  92 NW9       29.77S FOG
GRND FRKS AFB  CLOUDY    32  32 100 N7        29.78S FOG
DEVILS LAKE    CLOUDY    30  28  93 N20       29.82R WCI  18
$$

NDZ022-023-025-028>030-036>039-047>053-282200-
SOUTHEAST NORTH DAKOTA

CITY           SKY/WX    TMP DP  RH WIND       PRES   REMARKS
FARGO          CLOUDY    36  31  82 S10       29.76R HAZE
JAMESTOWN      CLOUDY    32  31  96 N16       29.78R FOG
$$




USA.gov is the U.S. government's official web portal to all federal, state and local government web resources and services.